[Date Prev][Date Next][Thread Prev][Thread Next] - [Date Index][Thread Index][Author Index]

2 Line ISS Keps 4-27



ISS
1 25544U 98067A   03117.47478492  .00022782  00000-0  29681-3 0  9335
2 25544  51.6319 275.0255 0006666  60.7117  29.0474 15.58609796253090


----
Via the sarex mailing list at AMSAT.ORG courtesy of AMSAT-NA.
To unsubscribe, send "unsubscribe sarex" to Majordomo@amsat.org



AMSAT Top AMSAT Home